RH
84 78 62 64 73 78 78 77 78 76 74 73 69 64 58 61 48 40 29 28 28 28 32 34 30 26 41 37 29 25 26 24 25 37 40 32 38 43 28 46 64 76 84
81 80 58 60 66 75 79 77 76 76 77 75 74 71 66 64 60 53 36 29 28 27 26 28 30 55 42 25 26 26 26 24 24 27 25 30 52 46 31 59 77 84 90
78 78 69 57 55 63 72 74 75 75 74 71 75 79 71 69 63 54 46 38 38 54 69 82 79 69 43 35 35 42 41 36 40 36 38 34 73 76 36 49 74 83 90
78 66 73 64 61 58 51 51 57 62 61 64 71 76 76 73 69 63 56 45 45 69 70 74 72 75 58 35 60 66 58 81 82 72 64 44 48 66 43 32 44 65 72
81 80 65 66 62 59 60 64 61 57 56 57 64 72 75 74 72 66 60 58 49 72 61 66 69 73 69 42 30 77 65 82 87 75 77 76 38 45 47 37 33 37 36
75 66 29 34 57 65 58 57 58 63 65 62 60 63 68 73 72 74 71 62 60 58 56 60 61 57 46 29 26 59 69 83 86 72 76 70 83 47 66 55 43 50 74
58 55 36 23 21 21 30 56 61 60 65 74 72 67 66 65 68 75 78 71 72 69 71 67 55 44 32 24 26 36 72 77 80 76 84 79 95 85 96 99 92 92 86
47 48 46 26 19 18 16 19 37 62 62 62 70 76 68 62 64 73 76 74 77 72 68 73 66 51 39 38 27 30 39 68 74 82 86 84 90 89 93 90 83 75 69
38 37 34 20 22 21 20 18 17 24 57 64 66 68 76 68 66 69 72 76 82 76 74 74 72 51 54 50 30 28 32 74 83 82 89 88 84 76 75 70 71 60 55
37 35 28 25 28 28 26 24 22 20 18 23 57 71 68 76 70 70 77 79 83 78 74 76 65 46 56 55 38 27 28 51 80 83 90 89 79 57 59 63 68 68 66
31 27 27 28 29 28 28 25 24 24 22 19 18 42 76 69 74 73 69 75 78 81 77 74 57 34 44 59 58 52 33 32 69 81 92 96 75 72 73 71 75 73 62
33 29 25 24 24 27 28 24 22 24 24 24 20 24 29 76 75 75 81 68 69 78 81 76 70 36 29 51 65 50 47 45 67 86 88 88 91 84 81 67 69 72 66
26 29 30 26 22 24 26 25 23 27 28 31 27 36 61 74 70 85 82 86 85 74 76 80 79 59 32 32 45 60 46 59 78 73 74 77 81 90 79 66 70 70 60
36 38 42 32 24 22 24 22 25 29 30 34 39 49 72 76 76 76 81 79 81 87 82 71 75 77 59 36 39 44 46 54 76 81 85 74 74 82 81 75 70 65 62
35 38 38 35 29 24 22 24 26 27 28 29 31 33 41 78 75 80 82 84 84 85 91 88 77 72 79 66 53 49 74 50 71 74 73 76 77 78 75 66 69 60 60
23 25 31 29 22 23 22 26 27 27 26 26 26 28 34 36 66 79 81 93 92 93 94 90 89 80 74 84 76 63 70 82 66 71 73 72 74 76 74 63 65 57 59
21 24 20 21 21 21 22 24 25 26 26 25 25 26 28 35 39 39 52 73 79 94 89 91 89 96 92 85 90 78 76 86 77 74 75 72 73 74 68 64 57 70 57
20 24 22 21 21 22 24 24 22 19 18 19 22 26 30 31 34 41 39 34 37 61 89 90 89 90 93 96 84 87 78 89 86 82 77 73 71 73 69 55 60 84 50
18 20 24 23 23 25 26 26 25 22 15 14 21 26 34 44 43 43 48 46 42 36 36 65 92 91 92 92 89 89 88 83 88 84 82 75 73 74 74 49 64 82 70
19 21 23 27 32 35 31 30 28 25 17 19 25 30 39 55 59 48 46 46 44 42 38 37 60 87 97 95 94 88 83 86 88 89 85 78 86 76 74 56 62 78 76
20 24 27 32 35 43 40 35 32 26 19 21 26 32 38 49 65 68 55 50 50 46 44 50 61 66 99 100 96 100 98 98 91 88 96 87 90 76 77 60 59 62 82
25 30 36 40 41 48 54 49 39 29 22 23 31 37 41 47 54 64 66 60 54 50 52 56 64 76 78 84 100 100 99 98 100 98 99 90 87 80 81 72 66 66 66
47 43 44 53 62 66 63 56 44 33 26 36 36 36 44 50 56 59 67 73 72 68 59 61 65 75 83 81 88 99 94 93 97 86 98 95 90 90 90 83 73 68 59
93 93 78 75 73 73 72 62 58 64 54 50 55 58 57 60 60 62 63 64 68 73 73 65 67 77 81 79 82 86 92 99 92 99 100 99 98 93 96 89 82 72 61
100 100 99 99 93 82 89 87 92 81 62 66 71 75 79 82 78 73 75 72 67 66 66 68 69 71 88 88 81 83 88 95 99 88 99 97 94 96 100 92 85 78 68
87 97 98 98 100 100 99 98 99 96 88 81 74 85 100 98 99 100 97 72 65 63 64 65 72 76 80 92 86 81 89 94 95 96 96 85 80 96 90 94 90 83 83
Wind_Speed
5 3 8 12 13 13 11 12 12 11 9 9 9 9 10 10 10 9 8 8 8 6 5 5 5 7 7 6 8 10 11 11 11 12 11 14 15 15 17 20 19 18 16
5 4 8 11 12 13 11 10 10 10 9 8 7 8 9 9 9 8 7 7 7 7 7 7 7 10 9 9 10 10 11 11 11 11 12 14 14 14 17 19 19 19 17
3 3 9 10 12 12 11 10 9 9 8 7 8 7 9 8 7 7 7 6 6 7 8 9 9 9 10 10 9 11 13 14 14 14 11 10 13 12 15 17 18 18 17
3 7 8 8 9 10 10 10 9 8 8 7 7 9 9 8 7 7 6 5 6 7 6 6 6 7 7 7 9 11 16 17 15 12 10 9 9 14 14 15 16 15 13
6 4 5 6 6 6 7 7 7 7 7 7 7 8 8 8 8 7 5 5 6 7 5 5 6 6 4 2 6 11 15 14 12 4 4 7 7 11 12 14 15 14 13
5 2 4 5 5 4 5 6 7 6 7 8 8 8 8 9 8 8 6 5 6 6 5 5 5 4 3 3 6 11 14 13 11 8 6 4 6 11 13 14 15 14 14
10 6 4 3 2 2 3 3 5 7 8 7 7 8 10 10 9 10 8 7 7 7 6 5 5 4 3 4 7 11 14 13 12 9 4 4 9 10 16 12 13 15 13
9 8 6 3 2 3 3 5 6 6 8 9 9 8 9 11 11 11 10 10 9 8 7 6 6 4 4 4 6 10 12 14 12 11 9 7 7 11 14 14 12 11 6
7 9 9 6 4 4 4 5 5 7 8 8 9 10 10 11 11 13 12 12 11 11 9 8 8 6 7 6 7 9 12 16 12 9 8 8 11 11 10 8 7 5 4
14 12 9 7 6 5 5 5 6 6 7 9 10 11 12 12 12 12 14 13 13 12 11 9 9 8 9 9 9 9 12 16 14 10 7 9 13 12 9 5 3 3 3
18 14 11 10 9 9 9 8 7 8 8 8 10 11 12 13 14 13 14 13 13 13 13 11 10 9 11 11 12 10 11 15 15 8 6 14 14 11 9 4 6 6 6
19 16 14 12 12 12 11 11 9 8 7 7 9 8 12 12 13 15 14 13 14 14 14 13 13 12 13 14 14 11 11 13 13 7 7 9 11 11 9 8 11 11 11
15 17 16 15 12 14 14 14 11 10 9 7 8 9 8 6 13 12 13 11 13 15 17 17 16 17 16 16 15 13 11 14 14 10 8 10 14 12 11 10 11 12 13
15 16 19 18 15 14 15 14 12 11 11 10 8 12 11 10 13 14 14 16 18 18 18 19 19 19 19 18 17 15 14 16 17 15 15 14 12 15 11 11 11 11 12
20 20 21 21 20 16 16 14 13 12 12 13 14 12 15 19 17 20 21 22 21 22 22 21 22 22 22 21 20 19 14 17 19 16 16 17 16 15 15 15 15 12 11
16 20 21 19 17 16 15 15 14 13 13 13 13 14 16 17 23 22 21 21 25 23 23 22 24 24 24 23 23 22 19 13 22 22 15 20 21 20 19 15 14 14 13
16 16 19 19 18 17 16 15 15 14 15 14 14 15 17 18 19 21 24 25 23 21 20 20 21 23 25 25 26 26 24 21 18 20 20 21 21 22 19 15 15 17 17
20 20 19 21 21 19 19 17 16 15 16 15 15 16 18 19 19 20 21 20 18 24 23 23 22 25 24 26 27 27 29 27 23 25 22 26 25 23 18 17 16 18 18
21 21 21 23 23 21 21 20 19 17 18 17 17 17 17 19 20 18 20 21 20 20 22 27 24 26 26 26 26 27 30 34 29 31 27 23 27 25 22 19 18 20 21
25 23 22 23 24 23 22 23 22 20 19 17 17 17 16 19 20 19 18 18 18 18 19 22 26 27 28 27 28 28 27 29 36 33 33 31 26 26 25 22 21 22 20
26 24 25 24 26 25 26 25 24 22 20 18 18 19 19 19 21 22 19 19 17 17 17 19 20 23 21 25 25 27 35 31 32 34 35 35 32 32 29 25 24 23 23
19 21 23 23 24 25 24 24 24 22 22 20 19 20 20 20 21 22 22 20 19 17 16 18 19 20 23 26 22 26 23 29 39 34 35 34 33 32 29 23 23 23 23
6 10 15 17 20 23 23 22 24 24 24 20 18 17 19 21 22 23 24 23 22 21 20 18 19 22 21 21 25 21 14 15 24 35 40 41 38 33 33 30 26 26 24
17 12 5 12 13 16 20 22 23 23 23 20 15 15 16 17 18 22 24 22 21 21 21 21 21 21 22 24 24 30 31 20 13 13 34 40 41 40 36 34 32 30 29
24 14 7 5 11 16 17 19 21 23 21 19 16 15 14 14 15 15 18 20 20 20 21 23 24 25 25 26 29 29 31 36 22 22 21 37 41 41 42 38 37 34 31
34 22 12 7 7 8 14 17 18 16 16 18 18 18 14 15 17 18 19 19 19 20 20 22 25 28 29 30 31 32 35 34 36 35 26 26 38 43 43 40 39 37 36
Wind_Direction
139 158 153 148 146 143 136 134 140 142 138 134 121 116 117 117 117 113 113 118 126 136 143 140 120 107 102 111 123 123 120 117 119 124 122 116 112 109 107 116 113 113 117
129 156 162 147 150 150 146 140 137 145 145 143 142 130 128 125 126 117 112 110 111 111 113 113 108 107 94 100 113 112 107 105 109 113 119 120 108 110 113 122 114 118 120
133 161 168 156 151 156 161 159 153 149 148 151 152 149 150 138 140 131 123 117 112 107 105 112 116 111 98 97 102 104 101 101 100 99 94 116 112 119 118 134 126 119 120
129 141 162 158 161 161 162 168 173 170 166 168 164 165 164 160 159 149 140 133 125 119 142 144 137 131 113 99 113 111 109 104 92 96 85 105 126 129 127 136 138 137 131
127 117 149 166 166 173 180 181 182 184 182 184 180 179 177 174 174 169 158 157 152 159 167 158 153 157 151 124 137 131 126 111 103 101 119 94 145 138 137 142 140 140 134
180 177 143 126 127 160 186 189 195 200 204 199 202 198 196 193 190 192 199 197 182 178 179 181 180 197 220 183 158 152 142 125 116 122 138 111 178 150 144 141 137 133 130
182 188 177 151 139 187 207 200 206 206 207 213 211 210 212 208 211 206 205 206 205 194 187 185 194 201 203 180 164 163 157 147 146 142 180 193 139 141 146 144 134 131 127
204 210 220 239 248 247 245 241 234 224 222 218 220 224 218 221 215 209 209 206 212 211 204 203 200 193 179 176 172 170 165 161 167 175 197 220 182 145 139 133 138 135 130
196 231 238 249 255 251 242 238 239 239 237 237 230 225 226 221 222 218 215 212 214 212 212 209 206 203 186 177 173 175 169 170 180 190 212 231 198 177 160 155 152 149 169
224 234 246 248 252 251 249 240 245 245 246 244 238 234 231 227 225 224 221 218 217 214 215 214 212 208 198 186 171 178 179 181 190 192 235 212 184 178 172 181 199 221 227
233 236 235 230 238 246 253 268 269 261 255 250 247 238 235 236 233 229 227 227 225 221 220 219 216 213 207 202 187 179 182 191 203 215 215 194 187 186 196 210 270 287 284
234 236 232 233 239 240 251 262 265 265 261 261 241 232 239 240 240 237 235 234 232 228 227 226 222 219 214 210 208 199 190 188 192 192 217 218 204 208 212 223 263 283 286
239 238 235 239 242 239 243 249 257 260 265 264 248 233 221 234 245 235 224 230 240 237 234 229 224 223 221 217 217 216 204 195 200 187 221 240 233 234 233 237 241 271 278
236 234 238 248 254 248 242 249 245 244 247 252 246 227 230 221 235 254 255 245 243 247 243 236 232 230 228 225 222 223 222 205 204 214 218 249 247 249 258 253 256 263 266
241 242 246 253 256 245 246 246 246 245 245 246 249 243 225 222 220 228 234 237 237 242 244 239 239 235 231 229 230 222 213 212 205 217 217 234 241 253 267 269 254 255 242
250 248 250 252 245 243 243 244 249 251 250 246 247 246 242 236 231 234 239 240 240 242 244 242 240 240 236 232 230 232 230 218 209 218 225 234 238 246 259 261 248 233 219
273 265 250 248 247 248 247 247 249 251 253 253 253 252 249 243 243 242 244 246 244 240 241 242 247 242 242 238 232 228 231 232 216 225 238 239 240 248 259 247 241 219 211
270 263 254 247 250 247 248 249 252 256 260 258 254 249 249 251 245 245 249 249 245 239 233 235 239 244 243 243 237 231 224 227 222 232 236 242 246 252 256 239 237 217 209
280 269 258 249 251 251 247 248 252 257 263 262 257 251 243 246 252 248 244 248 251 248 242 239 238 241 245 244 245 243 231 225 227 231 229 235 245 247 251 243 233 220 214
273 268 262 255 254 250 249 248 252 256 263 260 255 249 242 240 249 252 248 247 248 254 252 245 238 236 239 241 243 243 238 235 233 232 232 228 240 247 253 245 228 220 218
259 257 255 253 254 249 248 249 252 260 264 260 253 248 243 239 242 250 249 248 249 252 255 251 247 242 235 241 245 248 239 236 235 239 237 234 233 241 248 238 225 221 223
249 252 251 254 258 259 257 256 257 259 260 257 248 243 244 243 243 243 248 249 250 251 249 250 249 249 242 233 240 246 254 251 234 237 232 222 218 235 241 234 229 222 224
353 271 263 257 254 258 263 256 256 258 260 255 250 246 242 245 247 245 244 244 247 249 249 249 249 248 247 240 232 237 230 237 242 240 234 229 226 224 235 237 231 227 226
41 54 332 266 260 264 265 262 261 260 259 261 250 242 239 241 247 246 247 247 245 246 248 248 248 249 247 245 238 238 236 243 225 226 231 226 225 224 227 234 235 229 226
21 17 358 328 290 276 271 265 265 263 243 235 238 237 235 239 247 244 246 247 245 245 250 251 248 246 244 243 243 246 241 239 237 229 225 224 224 226 223 230 235 237 226
3 3 353 331 305 291 286 271 266 272 257 251 240 235 236 240 235 239 247 248 248 249 255 257 252 247 245 243 245 246 246 241 240 244 238 235 234 224 230 230 234 233 228